When you browse on this site, cookies collect data to enhance your experience and personalize the content and advertising you see.
Visit our Privacy Policy to learn more. By continuing to use the site, you agree to this use of cookies and data.
  • In Spain
  • List of Countries
  • For 7 days
  • Water Temperature
  • Satellite Maps
  • Weather Map
  • Weather Widgets
  • user-avatar
    Login

    Hourly Weather Dejr az-Zaur

    Today, 17 February, Sunday

    Time Temperature Precipitation Wind Pressure Humidity
    00:00 +9°C° 0 mm 0 mps 745 mmHg 72%
    01:00 +10°C° 0 mm 0 mps 745 mmHg 71%
    02:00 +11°C° 0 mm 1 mps 745 mmHg 70%
    03:00 +11°C° 0 mm 1 mps 745 mmHg 70%
    04:00 +10°C° 0 mm 2 mps 745 mmHg 71%
    05:00 +9°C° 0 mm 2 mps 745 mmHg 73%
    06:00 +9°C° 0 mm 2 mps 745 mmHg 74%
    07:00 +9°C° 0 mm 3 mps 746 mmHg 73%
    08:00 +10°C° 0 mm 3 mps 746 mmHg 71%
    09:00 +10°C° 0 mm 3 mps 746 mmHg 69%
    10:00 +11°C° 0 mm 4 mps 746 mmHg 64%
    11:00 +12°C° 0 mm 4 mps 746 mmHg 58%
    12:00 +13°C° 0 mm 4 mps 747 mmHg 53%
    13:00 +14°C° 0.1 mm 4 mps 746 mmHg 51%
    14:00 +14°C° 0.1 mm 4 mps 746 mmHg 48%
    15:00 +15°C° 0.1 mm 4 mps 745 mmHg 46%
    16:00 +14°C° 0 mm 4 mps 745 mmHg 48%
    17:00 +14°C° 0 mm 4 mps 745 mmHg 49%
    18:00 +14°C° 0 mm 3 mps 745 mmHg 51%
    19:00 +13°C° 0 mm 3 mps 745 mmHg 54%
    20:00 +13°C° 0 mm 3 mps 745 mmHg 57%
    21:00 +12°C° 0 mm 3 mps 745 mmHg 60%
    22:00 +12°C° 0 mm 3 mps 745 mmHg 63%
    23:00 +11°C° 0 mm 3 mps 745 mmHg 65%

    Tomorrow, 18 February, Monday

    Time Temperature Precipitation Wind Pressure Humidity
    00:00 +11°C° 0 mm 3 mps 745 mmHg 68%
    01:00 +10°C° 0 mm 3 mps 745 mmHg 69%
    02:00 +10°C° 0 mm 3 mps 745 mmHg 71%
    03:00 +10°C° 0 mm 3 mps 745 mmHg 73%
    04:00 +9°C° 0 mm 3 mps 745 mmHg 75%
    05:00 +9°C° 0 mm 3 mps 744 mmHg 77%
    06:00 +9°C° 0 mm 3 mps 744 mmHg 79%
    07:00 +8°C° 0 mm 4 mps 745 mmHg 76%
    08:00 +10°C° 0 mm 4 mps 745 mmHg 74%
    09:00 +10°C° 0 mm 4 mps 745 mmHg 71%
    10:00 +12°C° 0 mm 4 mps 745 mmHg 63%
    11:00 +13°C° 0 mm 4 mps 745 mmHg 56%
    12:00 +14°C° 0 mm 4 mps 745 mmHg 49%
    13:00 +15°C° 0 mm 4 mps 744 mmHg 46%
    14:00 +15°C° 0 mm 5 mps 744 mmHg 42%
    15:00 +16°C° 0 mm 5 mps 743 mmHg 39%
    16:00 +15°C° 0 mm 5 mps 743 mmHg 41%
    17:00 +15°C° 0 mm 4 mps 743 mmHg 44%
    18:00 +14°C° 0 mm 4 mps 742 mmHg 46%
    19:00 +14°C° 0 mm 4 mps 742 mmHg 49%
    20:00 +13°C° 0 mm 3 mps 743 mmHg 52%
    21:00 +12°C° 0 mm 3 mps 743 mmHg 55%
    22:00 +12°C° 0 mm 3 mps 743 mmHg 57%
    23:00 +12°C° 0 mm 3 mps 743 mmHg 59%

    Day after tomorrow, 19 February, Tuesday

    Time Temperature Precipitation Wind Pressure Humidity
    00:00 +11°C° 0 mm 3 mps 743 mmHg 61%
    01:00 +11°C° 0 mm 4 mps 743 mmHg 65%
    02:00 +10°C° 0 mm 4 mps 743 mmHg 68%
    03:00 +9°C° 0 mm 5 mps 743 mmHg 72%
    04:00 +9°C° 0 mm 5 mps 743 mmHg 74%
    05:00 +8°C° 0 mm 6 mps 743 mmHg 76%
    06:00 +8°C° 0 mm 6 mps 743 mmHg 78%
    07:00 +9°C° 0 mm 7 mps 743 mmHg 74%
    08:00 +9°C° 0 mm 7 mps 743 mmHg 69%
    09:00 +10°C° 0 mm 8 mps 744 mmHg 64%
    10:00 +11°C° 0 mm 8 mps 744 mmHg 56%
    11:00 +12°C° 0 mm 8 mps 744 mmHg 49%
    12:00 +15°C° 0 mm 8 mps 744 mmHg 41%
    13:00 +15°C° 0 mm 8 mps 744 mmHg 38%
    14:00 +16°C° 0 mm 8 mps 743 mmHg 36%
    15:00 +17°C° 0 mm 7 mps 743 mmHg 33%
    16:00 +16°C° 0 mm 6 mps 743 mmHg 34%
    17:00 +16°C° 0 mm 5 mps 743 mmHg 36%
    18:00 +15°C° 0 mm 4 mps 743 mmHg 37%
    19:00 +15°C° 0 mm 4 mps 744 mmHg 43%
    20:00 +14°C° 0 mm 4 mps 744 mmHg 49%
    21:00 +13°C° 0 mm 4 mps 744 mmHg 54%
    22:00 +13°C° 0 mm 5 mps 745 mmHg 60%
    23:00 +13°C° 0 mm 6 mps 745 mmHg 66%

    20 February, Wednesday

    Time Temperature Precipitation Wind Pressure Humidity
    00:00 +11°C° 0 mm 7 mps 745 mmHg 72%
    01:00 +11°C° 0 mm 7 mps 745 mmHg 74%
    02:00 +10°C° 0 mm 7 mps 745 mmHg 76%
    03:00 +10°C° 0 mm 6 mps 745 mmHg 78%
    04:00 +9°C° 0 mm 6 mps 746 mmHg 80%
    05:00 +9°C° 0 mm 5 mps 746 mmHg 81%
    06:00 +9°C° 0 mm 5 mps 746 mmHg 83%
    07:00 +9°C° 0 mm 5 mps 747 mmHg 78%
    08:00 +11°C° 0 mm 4 mps 747 mmHg 74%
    09:00 +11°C° 0 mm 4 mps 748 mmHg 69%
    10:00 +12°C° 0 mm 4 mps 748 mmHg 60%
    11:00 +14°C° 0 mm 3 mps 748 mmHg 50%
    12:00 +16°C° 0 mm 3 mps 748 mmHg 41%
    13:00 +17°C° 0 mm 3 mps 747 mmHg 39%
    14:00 +17°C° 0 mm 3 mps 747 mmHg 36%
    15:00 +18°C° 0 mm 3 mps 747 mmHg 33%
    16:00 +17°C° 0 mm 3 mps 747 mmHg 35%
    17:00 +17°C° 0 mm 3 mps 746 mmHg 37%
    18:00 +17°C° 0 mm 2 mps 746 mmHg 39%
    19:00 +16°C° 0 mm 2 mps 747 mmHg 41%
    20:00 +15°C° 0 mm 2 mps 747 mmHg 44%
    21:00 +15°C° 0 mm 2 mps 747 mmHg 46%
    22:00 +14°C° 0 mm 2 mps 747 mmHg 48%
    23:00 +14°C° 0 mm 2 mps 747 mmHg 50%

    21 February, Thursday

    Time Temperature Precipitation Wind Pressure Humidity
    00:00 +13°C° 0 mm 1 mps 746 mmHg 52%
    01:00 +13°C° 0 mm 2 mps 746 mmHg 54%
    02:00 +13°C° 0 mm 2 mps 746 mmHg 55%
    03:00 +13°C° 0 mm 2 mps 746 mmHg 57%
    04:00 +11°C° 0 mm 3 mps 746 mmHg 63%
    05:00 +11°C° 0 mm 3 mps 746 mmHg 69%
    06:00 +10°C° 0 mm 3 mps 746 mmHg 74%
    07:00 +11°C° 0 mm 4 mps 746 mmHg 73%
    08:00 +11°C° 0 mm 4 mps 747 mmHg 72%
    09:00 +12°C° 0 mm 4 mps 747 mmHg 70%
    10:00 +13°C° 0 mm 4 mps 747 mmHg 63%
    11:00 +14°C° 0 mm 4 mps 747 mmHg 55%
    12:00 +17°C° 0 mm 3 mps 747 mmHg 48%
    13:00 +17°C° 0 mm 4 mps 746 mmHg 45%
    14:00 +18°C° 0 mm 4 mps 746 mmHg 42%
    15:00 +18°C° 0 mm 4 mps 745 mmHg 39%
    16:00 +18°C° 0 mm 4 mps 745 mmHg 41%
    17:00 +17°C° 0 mm 3 mps 745 mmHg 42%
    18:00 +17°C° 0 mm 3 mps 745 mmHg 44%
    19:00 +16°C° 0 mm 2 mps 745 mmHg 46%
    20:00 +16°C° 0 mm 2 mps 745 mmHg 48%
    21:00 +15°C° 0 mm 2 mps 746 mmHg 51%
    22:00 +14°C° 0 mm 2 mps 746 mmHg 52%
    23:00 +14°C° 0 mm 2 mps 746 mmHg 54%

    22 February, Friday

    Time Temperature Precipitation Wind Pressure Humidity
    00:00 +14°C° 0 mm 2 mps 746 mmHg 55%
    01:00 +13°C° 0 mm 2 mps 746 mmHg 57%
    02:00 +13°C° 0 mm 2 mps 746 mmHg 58%
    03:00 +13°C° 0 mm 2 mps 746 mmHg 60%
    04:00 +12°C° 0 mm 2 mps 746 mmHg 64%
    05:00 +11°C° 0 mm 3 mps 746 mmHg 68%
    06:00 +10°C° 0 mm 3 mps 746 mmHg 72%
    07:00 +11°C° 0 mm 3 mps 746 mmHg 71%
    08:00 +12°C° 0 mm 3 mps 746 mmHg 70%
    09:00 +12°C° 0 mm 3 mps 747 mmHg 69%
    10:00 +14°C° 0 mm 2 mps 747 mmHg 62%
    11:00 +15°C° 0 mm 2 mps 747 mmHg 55%
    12:00 +16°C° 0 mm 2 mps 747 mmHg 49%
    13:00 +17°C° 0 mm 2 mps 746 mmHg 46%
    14:00 +17°C° 0 mm 2 mps 746 mmHg 42%
    15:00 +18°C° 0 mm 2 mps 745 mmHg 39%
    16:00 +18°C° 0 mm 2 mps 745 mmHg 39%
    17:00 +19°C° 0 mm 1 mps 745 mmHg 39%
    18:00 +19°C° 0 mm 1 mps 745 mmHg 39%
    19:00 +18°C° 0 mm 1 mps 745 mmHg 42%
    20:00 +18°C° 0 mm 1 mps 745 mmHg 44%
    21:00 +16°C° 0 mm 1 mps 745 mmHg 46%
    22:00 +16°C° 0 mm 2 mps 745 mmHg 49%
    23:00 +15°C° 0 mm 2 mps 745 mmHg 52%
    Show more